Wind_Speed
16 16 16 16 16 16 17 17 16 17 17 17 18 18 18 18 18 17 18 18 19 19 20 21 21 22 23 24 26 28 30 28 24 23 15 3 2 6 10 13 15 15 14 13 12 12 12 12 13 14 12 9 9 8 12 12 9 9 9 12 13 14 15 14 16 15 14 15 16 17 19 18 15 12 9 12 13 9 14 17 8 10 10 10 21 23 23 23
16 16 17 17 17 17 17 17 17 17 17 18 18 19 18 18 18 17 18 18 19 19 20 21 21 22 24 25 27 27 28 25 23 21 10 6 7 9 9 9 11 9 8 9 10 10 9 9 11 13 11 8 9 10 11 11 11 11 9 12 14 14 16 16 18 18 18 18 17 16 18 19 16 14 9 11 12 13 17 15 9 10 10 13 24 24 22 21
17 17 17 17 17 17 18 18 18 18 18 19 19 19 19 18 18 18 18 18 19 19 20 21 21 23 24 26 27 26 26 23 19 10 2 6 7 6 7 10 10 7 7 11 11 11 11 11 12 11 11 9 9 11 13 11 11 12 11 12 14 16 17 19 21 21 19 19 21 19 17 17 17 15 11 11 13 18 18 12 12 15 14 13 19 23 21 18
17 18 18 18 18 18 18 18 19 19 19 19 19 19 19 19 18 18 17 18 19 19 20 20 21 22 23 26 26 25 23 18 8 3 6 3 2 4 9 12 11 8 10 13 13 13 13 13 14 12 11 10 11 13 14 13 11 11 13 15 16 17 18 22 23 22 20 20 23 21 19 18 16 14 13 14 15 15 15 12 14 15 15 15 17 22 19 17
18 18 18 18 18 18 18 19 19 19 20 20 20 19 18 18 18 18 18 19 19 19 20 20 21 22 23 26 24 23 18 8 3 6 5 2 1 8 12 14 12 9 12 14 12 12 12 12 12 11 10 10 11 12 14 16 13 11 16 20 20 19 20 20 21 23 21 21 24 21 20 19 15 15 17 18 15 11 13 14 14 12 13 11 17 22 18 17
17 17 18 18 18 18 18 19 19 19 20 20 20 19 18 18 19 19 18 19 19 19 19 19 20 21 23 24 24 21 11 4 4 5 6 0 6 10 13 14 10 9 13 14 13 11 11 11 11 11 10 10 13 14 14 17 16 13 15 21 23 23 22 18 19 22 21 23 23 19 19 19 18 19 18 20 16 11 14 20 16 8 1 7 15 18 16 16
17 17 17 17 17 17 17 18 18 18 19 19 19 19 18 19 19 19 19 19 19 19 19 19 19 20 22 22 21 14 8 8 4 4 2 4 9 11 12 12 9 11 13 13 12 10 9 10 11 11 10 11 14 16 16 17 19 17 16 20 23 24 23 21 20 20 22 25 22 19 20 22 22 20 18 19 17 16 18 18 18 5 17 22 15 12 12 14
18 17 17 18 18 18 17 17 18 18 18 19 19 19 19 19 19 19 19 18 18 18 18 18 18 19 19 18 15 8 8 6 6 6 6 7 7 8 8 8 9 11 11 10 11 10 9 10 12 11 11 13 13 15 16 17 19 21 20 19 20 21 21 22 22 23 25 22 19 23 24 25 24 19 18 20 19 16 17 15 12 12 9 20 19 15 11 11
19 19 18 19 19 18 18 17 18 19 19 19 19 19 19 19 18 18 17 17 17 17 16 17 17 17 16 14 11 7 7 2 7 2 5 3 3 4 6 9 10 10 10 10 10 10 8 8 10 11 12 14 14 15 17 16 15 18 21 20 20 20 20 21 22 26 26 19 18 24 27 28 26 19 19 24 23 20 17 14 12 14 14 9 17 18 14 13
21 21 21 21 20 19 19 18 19 19 20 20 20 19 19 19 20 19 19 18 17 17 17 16 14 14 13 11 9 7 4 1 1 4 5 4 6 6 8 9 9 10 11 11 10 11 9 9 10 10 12 14 15 16 17 17 14 16 21 21 22 21 20 20 22 25 24 21 23 25 25 24 22 17 16 24 26 21 20 18 13 13 16 16 10 14 14 14
21 22 22 22 22 21 21 21 21 21 21 21 21 21 20 21 22 21 21 19 18 18 17 15 13 12 12 10 7 7 2 2 5 4 5 7 8 9 11 10 10 11 11 11 12 12 11 12 11 9 8 9 13 16 17 18 17 18 21 20 22 23 21 22 22 23 19 19 27 28 25 22 18 18 20 23 21 18 21 23 18 14 14 15 9 13 11 12
21 21 22 22 22 22 23 24 24 22 22 23 23 22 22 23 23 22 22 21 20 18 16 14 12 11 12 10 10 15 11 11 12 11 12 12 13 13 13 13 13 13 13 12 12 12 12 13 12 11 9 8 10 12 13 18 19 19 21 19 21 23 22 24 23 22 20 17 21 23 22 23 22 25 27 21 14 16 21 22 21 14 12 12 10 12 11 12
20 21 21 22 22 22 23 24 24 23 23 25 24 24 24 24 24 24 24 24 21 18 15 13 11 12 12 9 12 19 20 20 19 17 17 17 18 17 15 16 15 16 16 15 15 14 13 12 13 13 13 12 11 10 11 15 17 18 20 16 16 17 18 24 23 23 24 17 17 19 16 21 25 27 26 18 15 20 21 20 16 10 10 9 9 9 11 13
21 21 21 22 22 22 23 23 23 23 24 25 25 25 25 26 27 27 26 25 21 16 13 10 10 12 10 10 15 20 21 21 19 19 18 16 17 17 17 17 16 17 17 17 17 15 14 14 14 12 11 12 12 13 15 13 13 16 17 14 13 13 14 20 22 24 24 17 19 22 16 18 22 23 25 20 16 20 22 21 13 8 10 7 7 7 11 12
22 21 21 22 22 23 23 23 23 23 24 25 26 26 27 29 29 27 24 22 18 16 14 11 12 10 8 12 15 14 15 18 20 21 18 15 16 16 16 16 17 17 17 17 17 14 14 14 14 10 9 12 13 13 12 10 11 12 13 13 13 13 13 17 21 23 23 18 20 22 15 14 18 20 23 20 16 20 23 21 14 12 10 6 6 7 11 11
21 21 21 22 22 23 24 24 24 23 24 26 27 29 31 32 30 26 22 19 16 14 12 12 14 12 8 8 8 8 11 15 17 16 15 16 16 15 15 15 16 17 17 17 16 14 13 12 11 10 10 11 12 11 9 8 10 11 13 14 15 15 14 14 17 22 25 21 21 24 16 11 15 18 19 17 18 22 21 20 17 14 9 7 8 7 9 10
22 22 22 22 22 22 23 24 24 24 25 28 31 33 34 32 27 22 18 15 14 12 11 12 13 12 9 7 7 9 10 14 13 9 9 12 12 14 14 13 14 15 16 16 16 13 12 10 8 9 9 9 11 11 10 11 11 11 13 13 15 19 15 13 14 19 27 24 20 24 20 15 16 17 19 19 18 18 18 21 17 12 10 10 9 8 8 10
23 23 23 23 23 23 23 23 24 24 26 30 32 34 35 30 22 18 15 12 12 10 11 12 10 6 8 10 12 10 9 12 7 7 5 8 10 12 14 13 11 12 12 12 13 12 10 9 8 9 9 10 11 12 13 15 15 14 14 12 14 17 17 17 15 16 25 24 20 22 22 22 21 18 18 20 20 17 18 20 15 12 13 11 10 10 10 10
23 23 23 24 24 24 23 23 24 24 26 29 29 33 33 23 14 14 14 12 9 7 7 8 10 7 6 8 12 14 13 13 9 10 9 6 11 12 13 14 11 11 11 9 11 13 10 8 9 10 10 13 16 17 18 18 18 17 16 14 14 15 17 18 17 17 22 21 22 24 22 22 22 22 20 18 19 20 20 18 13 12 12 10 10 10 11 12
23 24 24 23 23 23 23 23 25 25 25 25 26 27 21 9 4 5 7 9 10 11 12 10 11 14 13 12 13 16 16 15 14 17 13 9 13 12 11 12 11 11 11 11 12 12 11 9 11 13 15 19 20 22 23 21 20 19 17 17 18 17 16 17 19 21 21 19 20 25 23 22 21 23 23 19 18 18 19 17 15 13 11 9 11 12 13 12
23 24 23 23 23 23 24 24 25 26 25 23 20 15 10 7 6 5 5 9 13 17 19 19 17 19 19 19 19 18 16 14 15 17 15 14 15 12 10 11 11 10 11 15 13 10 11 11 14 18 21 21 21 22 23 24 24 21 18 17 17 17 16 18 20 23 22 17 17 22 23 23 22 21 21 21 21 18 18 16 16 16 13 11 11 13 13 10
24 23 23 23 23 23 24 25 26 27 26 21 14 10 9 10 11 10 11 10 14 19 20 20 20 19 20 22 21 18 15 13 15 15 14 15 14 11 10 12 13 11 12 14 11 10 12 13 18 23 21 21 21 22 24 25 24 20 17 15 14 14 15 18 20 22 21 13 13 20 20 19 21 21 19 21 21 18 19 16 17 18 16 13 11 12 13 11
25 25 25 24 24 24 25 26 28 27 22 15 11 11 12 13 13 13 11 9 13 17 17 17 18 17 19 18 15 14 13 13 14 14 14 16 13 12 12 13 14 14 13 13 12 11 11 14 21 22 20 21 23 23 24 23 20 18 16 14 14 16 16 14 18 22 21 16 13 17 16 14 18 20 19 20 20 18 18 12 15 16 15 14 13 11 13 14
24 25 25 24 24 25 25 28 26 19 12 10 11 11 11 12 12 12 9 7 10 13 13 15 16 15 11 6 4 9 11 11 12 12 14 17 13 12 13 14 14 14 14 16 18 16 16 17 19 21 22 23 23 23 24 19 15 19 20 17 15 19 20 15 17 20 19 19 18 15 12 11 15 19 18 17 18 18 15 11 14 13 13 14 14 13 13 15
24 24 25 25 24 24 26 24 16 10 8 8 8 7 8 9 10 10 7 6 7 7 9 10 8 4 1 1 2 5 9 11 12 12 12 16 15 12 11 12 11 13 16 19 19 15 18 20 18 20 23 24 23 21 22 19 13 17 23 23 19 20 23 20 19 18 14 15 18 17 11 9 14 19 18 15 16 19 15 14 15 14 14 14 14 14 12 13
25 25 25 24 23 23 20 12 6 8 8 6 5 6 7 8 9 9 5 4 5 3 7 7 4 1 1 4 5 5 9 9 10 13 14 15 15 13 11 9 8 13 16 16 13 9 13 20 20 20 22 24 24 19 22 23 15 13 19 25 26 24 23 23 23 19 11 11 16 18 11 7 11 17 19 18 18 21 19 17 19 16 15 15 13 13 12 15
26 25 26 24 22 19 12 6 8 10 5 3 6 8 8 7 8 7 4 4 3 2 4 3 1 1 1 4 4 5 6 4 6 12 15 14 13 12 12 11 9 12 12 9 8 8 13 19 21 22 22 21 20 16 21 24 17 13 17 24 27 27 24 23 23 17 11 12 14 18 14 9 9 14 19 21 19 22 22 19 19 17 17 16 14 14 14 17
26 26 26 24 20 13 9 10 9 7 5 6 9 8 6 7 7 5 4 4 1 1 1 2 3 2 3 5 6 9 9 7 6 5 9 13 13 11 12 14 14 14 13 9 8 11 14 18 20 22 20 16 16 16 22 25 19 15 18 23 26 25 23 19 18 16 14 13 12 16 17 10 9 11 16 21 21 22 23 21 20 19 19 17 16 16 16 18
27 27 25 21 16 8 8 9 8 7 7 7 7 7 5 6 6 3 3 4 1 1 2 2 2 2 4 7 9 11 10 9 7 3 5 11 13 11 10 12 15 16 15 13 12 11 11 16 21 21 17 14 17 20 24 24 19 17 21 24 23 22 21 16 13 14 14 12 12 17 19 12 9 10 13 18 19 19 19 18 19 20 20 18 16 16 18 19
28 28 22 16 13 6 5 8 10 10 7 5 5 6 6 4 3 3 4 2 1 2 2 1 2 4 8 10 9 9 9 9 7 5 9 11 12 13 9 9 12 13 13 13 13 13 13 16 18 17 14 14 17 20 23 24 21 21 21 21 20 18 16 14 12 14 12 10 15 21 22 16 10 10 12 13 15 17 16 16 17 20 21 19 16 15 17 19
30 27 16 11 11 7 4 5 5 6 5 4 5 5 6 3 2 4 3 1 2 2 2 2 3 7 11 11 7 4 7 9 6 5 10 10 10 12 9 8 9 8 9 9 10 13 16 16 14 12 15 16 18 18 20 23 23 21 16 15 15 12 12 12 12 13 10 10 17 21 23 20 12 9 12 13 16 20 18 17 19 20 22 19 15 14 15 18
29 20 10 8 8 7 8 5 5 6 4 3 4 4 4 2 3 4 2 2 3 1 1 3 5 8 11 11 9 7 7 7 5 7 11 9 8 9 10 8 7 7 8 7 7 10 14 14 12 12 15 17 16 13 15 19 20 18 14 13 12 10 10 10 11 11 10 12 17 20 21 18 12 10 13 15 18 22 19 18 19 21 21 18 17 16 14 16
22 12 8 7 6 9 9 5 5 5 3 3 4 3 3 3 3 4 5 5 2 1 2 4 8 13 13 10 9 10 9 6 6 9 11 11 10 9 12 13 12 10 6 5 7 8 9 11 13 13 12 15 15 11 11 14 17 17 14 11 11 11 9 9 11 11 11 12 16 21 19 13 11 11 14 16 16 20 20 17 18 20 20 18 18 19 15 17
12 8 9 7 8 12 8 3 3 3 2 3 4 3 3 5 4 6 8 6 2 2 3 6 12 15 14 10 9 8 6 6 7 9 10 10 9 7 10 14 16 11 5 4 6 7 9 7 10 13 9 11 16 15 11 12 16 16 13 12 12 11 9 9 11 11 11 11 15 19 15 10 9 10 13 17 14 17 20 17 17 18 18 17 18 19 16 16
8 9 10 8 10 11 6 2 2 2 1 2 3 4 3 5 5 6 7 4 3 4 5 9 14 13 10 8 7 7 5 3 6 8 8 8 7 7 8 11 15 12 5 3 3 6 10 7 10 15 10 10 16 17 14 12 13 14 13 13 12 13 10 7 8 9 8 8 10 11 9 7 7 7 15 19 18 15 20 17 17 18 17 16 15 16 15 14
10 10 9 11 12 9 3 1 3 2 2 2 3 4 4 6 5 5 5 3 2 3 8 12 9 6 6 4 3 5 4 3 5 6 6 8 9 10 10 8 11 12 8 5 4 5 9 7 11 17 13 14 17 16 16 13 10 12 13 13 13 16 13 6 7 8 6 7 7 8 8 8 8 6 13 18 17 15 19 18 18 18 19 17 13 14 14 13
13 11 8 9 6 3 1 2 5 4 3 3 4 5 5 7 6 5 4 3 1 0 5 8 3 0 5 4 1 4 5 4 6 5 5 7 8 10 12 8 8 11 12 10 7 5 5 5 10 18 16 16 16 16 18 18 13 10 12 14 14 16 13 7 6 6 6 7 7 10 12 11 10 6 7 14 15 15 19 18 19 18 19 18 14 14 14 14
13 11 10 8 1 5 2 5 6 5 4 3 6 8 7 7 8 8 4 1 2 2 3 5 1 2 3 5 2 3 5 3 4 5 5 5 4 7 11 9 9 12 11 10 6 5 5 5 9 18 17 13 13 14 15 19 21 16 14 14 14 12 12 9 6 6 9 8 6 12 15 11 9 8 8 14 15 15 17 16 17 19 20 17 14 15 15 15
11 8 7 7 3 5 5 6 5 4 3 4 6 6 6 9 12 12 7 0 3 2 3 5 4 2 3 5 5 1 5 4 2 3 3 4 3 4 7 8 9 12 12 11 8 6 5 2 5 15 16 13 10 11 10 12 17 18 16 14 12 9 10 10 7 7 8 7 6 11 12 8 8 10 13 15 14 13 14 11 13 17 19 16 14 15 15 15
8 4 4 7 5 5 9 6 4 3 3 4 6 6 7 10 13 13 12 5 2 3 3 4 6 5 4 5 5 3 4 4 3 4 3 5 5 4 6 8 7 9 13 14 9 6 3 0 2 10 15 13 9 9 11 11 11 13 13 13 11 8 8 9 9 8 8 7 6 7 7 7 7 10 13 14 13 12 13 11 11 14 17 16 15 15 15 15
6 5 3 10 8 8 10 5 4 4 5 5 6 6 8 10 12 15 14 7 3 6 4 4 7 7 6 6 5 4 4 4 5 5 3 5 6 4 6 9 8 9 11 11 9 7 3 1 2 6 9 9 9 12 15 15 13 12 11 11 12 10 8 9 9 9 9 7 7 6 6 7 6 7 12 12 11 13 14 13 11 13 17 17 14 16 17 16
6 4 3 13 12 9 6 5 5 5 5 5 6 7 9 9 11 14 13 7 4 5 5 5 8 7 7 6 4 5 5 5 5 4 4 5 6 6 7 11 12 10 7 7 6 4 5 2 5 7 8 9 13 14 17 19 18 16 13 12 13 10 8 8 8 8 9 9 10 8 5 6 5 4 10 10 10 12 14 13 12 12 15 16 15 17 18 17
4 4 3 13 14 8 5 7 5 4 5 8 10 11 10 7 8 12 13 9 6 3 4 4 5 6 6 5 5 5 4 6 5 4 6 6 6 8 9 12 14 11 7 5 3 3 6 2 5 6 7 9 12 14 17 20 18 16 13 12 11 9 10 9 6 6 7 9 11 8 5 7 6 5 8 11 11 11 12 13 13 12 11 14 17 19 18 17
6 7 3 11 13 8 5 6 6 7 8 10 13 13 10 7 8 12 13 11 7 3 3 3 3 5 5 4 6 6 3 4 4 5 8 8 5 8 11 11 12 10 6 4 3 1 1 0 2 4 5 7 9 11 13 15 14 10 9 13 13 12 14 10 4 5 7 11 13 8 5 7 6 7 9 13 14 13 12 13 12 10 13 15 16 16 16 16
7 7 2 7 11 8 5 4 6 7 8 12 14 15 12 8 9 11 12 10 6 5 5 5 5 7 6 3 3 5 5 5 5 4 5 7 7 9 12 11 10 10 8 7 9 5 2 1 3 5 6 6 7 8 9 10 9 7 10 16 16 15 15 9 3 3 5 10 14 9 6 6 8 9 10 13 14 13 13 13 10 10 14 15 15 15 15 16
5 4 4 1 5 5 5 5 6 7 7 10 10 11 13 11 10 11 9 5 4 7 8 7 6 6 6 4 2 3 5 7 8 6 5 6 8 9 10 9 10 13 10 6 7 5 3 3 7 8 7 8 9 12 13 12 10 10 14 18 16 15 16 7 2 4 5 7 8 4 8 11 11 10 9 9 12 12 12 13 11 11 12 14 16 15 14 15
4 4 6 6 3 5 4 4 4 5 8 11 7 8 12 13 12 11 6 2 2 7 8 6 5 5 7 8 5 3 4 6 9 9 8 9 8 11 12 8 11 11 6 3 3 3 2 3 7 9 8 7 9 16 19 17 16 15 16 18 17 17 15 5 1 6 7 3 2 7 11 11 11 11 10 9 9 10 12 13 12 11 11 13 15 16 15 16
4 4 5 6 4 6 6 8 8 10 13 12 7 8 12 14 14 11 6 4 5 6 5 4 5 7 11 10 5 3 3 4 7 8 7 7 8 11 11 9 11 8 4 4 5 2 1 4 4 6 9 10 12 18 21 19 17 16 15 16 18 18 13 6 6 9 5 1 5 9 9 7 7 7 6 7 7 7 12 12 11 12 14 15 15 16 17 17
5 4 5 7 5 8 10 12 13 13 13 9 6 9 13 15 16 13 9 9 8 3 1 5 9 8 11 11 6 3 2 2 4 5 4 5 7 9 7 7 9 8 6 6 3 5 1 3 5 8 9 10 13 15 20 20 17 15 15 15 16 17 15 11 7 4 3 8 9 10 9 6 5 6 5 4 5 3 8 8 11 16 17 16 16 15 15 17
6 4 5 7 7 9 12 12 11 10 9 7 8 12 13 14 16 15 11 10 9 3 2 7 14 13 12 11 6 4 4 1 3 3 3 3 5 7 5 5 6 7 7 6 3 5 1 4 6 8 7 7 12 12 14 20 18 14 14 15 15 15 15 12 4 3 7 9 10 11 9 6 6 7 7 8 8 3 9 9 12 15 15 15 15 15 14 15
8 7 7 7 7 8 9 9 9 8 7 7 9 12 13 14 16 15 12 9 9 8 5 7 12 12 12 9 5 3 5 3 4 5 5 4 4 5 3 4 6 5 7 5 3 3 1 4 5 6 5 5 7 11 14 18 19 14 13 16 16 13 11 9 6 3 5 7 8 9 7 4 5 5 5 6 7 3 9 12 11 11 14 15 15 15 14 14
11 8 7 6 7 7 9 9 8 7 7 8 11 13 13 15 17 15 10 6 8 10 10 7 8 8 8 9 7 5 4 2 3 5 6 5 6 5 3 8 10 4 4 4 1 1 1 3 4 5 4 4 8 11 14 14 15 10 9 14 17 14 12 8 6 5 6 5 4 5 5 5 7 4 1 2 3 4 6 10 10 10 13 14 14 15 15 15
Wind_Direction
351 349 348 347 346 345 345 345 344 345 344 344 344 342 342 341 340 340 338 337 337 335 334 333 332 333 329 327 325 326 328 325 317 309 303 304 347 307 309 314 307 304 301 296 284 274 268 252 242 235 234 230 222 224 228 226 230 230 224 230 234 235 233 232 236 241 251 252 239 237 247 249 245 239 209 228 247 230 248 258 221 196 207 140 118 128 138 135
348 346 346 344 344 342 342 342 341 342 342 342 342 340 340 339 339 338 336 336 335 334 334 333 333 332 329 326 323 326 328 318 304 299 285 234 264 287 303 323 326 328 324 303 289 276 268 255 239 225 222 227 222 216 219 217 219 225 226 230 231 233 235 236 238 240 246 256 257 245 244 243 240 246 226 209 232 235 234 251 252 217 203 141 127 132 134 136
345 344 344 342 341 340 340 340 339 340 340 340 339 338 338 336 337 335 335 335 334 335 333 332 333 331 332 327 324 330 327 310 301 301 182 213 254 292 322 340 336 327 312 295 293 289 279 274 265 244 226 224 224 217 214 211 215 222 226 232 233 231 235 237 238 242 242 249 256 254 252 246 235 238 235 207 217 242 235 217 236 238 221 181 142 134 136 139
343 343 342 340 339 338 338 338 338 338 337 337 337 335 335 334 333 333 334 333 334 333 331 333 333 332 333 327 326 333 320 302 305 91 115 153 210 326 333 339 327 303 300 294 289 287 277 272 270 261 241 228 224 222 220 212 210 220 224 234 235 229 234 234 236 243 242 244 249 251 257 257 246 240 243 225 210 242 257 225 222 233 230 208 153 136 140 144
342 341 340 339 338 337 337 336 336 335 335 334 332 331 332 331 331 332 332 331 332 331 331 331 331 332 330 327 329 329 315 307 65 134 146 139 276 323 327 327 322 304 299 296 290 282 269 259 256 254 246 237 224 220 225 217 215 226 228 236 236 232 237 235 233 239 240 246 251 246 249 258 255 246 246 242 222 220 257 252 230 233 255 230 154 138 144 151
341 340 339 337 336 335 334 334 333 332 332 330 327 327 328 328 328 329 329 330 329 328 330 328 330 331 328 329 325 314 296 305 359 156 164 270 314 319 322 318 312 299 291 288 290 278 260 249 241 240 238 237 231 225 225 219 219 230 233 234 235 234 239 238 233 235 236 243 251 246 244 249 253 253 247 243 234 206 234 261 257 229 108 100 128 136 147 150
340 339 337 335 333 332 332 331 330 329 328 325 324 324 325 325 325 326 326 326 325 326 328 326 328 328 330 332 322 304 268 284 330 119 132 340 328 321 323 318 294 284 282 279 285 277 261 245 232 236 236 234 234 231 230 226 224 229 236 235 235 235 236 239 239 239 237 237 242 243 248 249 247 254 254 245 235 201 201 242 269 232 114 111 126 143 145 144
338 339 337 335 332 329 330 329 327 326 324 322 321 320 321 320 320 320 319 319 318 320 322 322 325 327 331 331 323 312 282 282 115 100 346 356 343 320 316 307 282 276 273 277 284 283 280 256 238 236 237 238 237 236 235 234 230 229 235 235 237 237 233 236 239 242 244 241 237 233 239 245 243 250 256 250 247 232 205 202 246 255 160 136 145 151 145 145
336 337 336 333 331 329 328 326 325 324 322 319 317 317 316 314 314 314 314 313 312 313 315 316 316 321 325 316 308 303 292 299 113 101 322 17 351 302 283 284 281 273 267 275 278 274 276 266 254 243 244 249 246 243 236 234 233 230 234 235 237 238 234 234 234 236 239 243 244 238 235 235 235 239 250 245 240 246 240 207 201 242 254 201 156 153 151 148
332 333 334 333 330 328 326 325 324 322 321 318 316 315 313 311 310 307 307 307 308 308 309 309 307 311 311 299 286 283 287 286 270 275 256 265 300 287 270 276 283 276 269 274 271 264 261 262 269 266 264 259 252 250 240 236 239 238 239 236 236 239 238 236 235 233 232 235 239 244 246 242 239 237 244 243 231 231 247 248 216 206 249 250 173 144 150 146
326 327 329 330 328 325 324 323 323 321 319 316 314 313 312 310 307 305 303 302 304 304 306 305 303 302 293 286 268 255 266 308 294 290 259 262 277 276 274 274 278 275 272 274 270 265 264 266 276 278 269 258 251 253 249 247 248 246 246 241 235 235 237 236 237 234 230 231 230 236 247 247 246 241 238 238 228 220 234 254 247 206 229 242 156 130 149 145
324 324 324 325 324 322 322 321 320 320 318 316 314 311 309 306 303 302 300 301 303 301 301 296 294 293 281 273 247 241 255 281 286 286 275 270 269 269 273 272 270 270 271 271 269 267 266 266 270 264 262 268 253 248 253 251 251 249 247 246 238 232 231 232 233 234 232 231 225 230 243 239 232 236 241 237 224 226 229 243 250 226 226 227 157 141 150 144
325 325 323 323 323 321 320 319 319 318 316 315 313 309 306 302 300 299 299 301 300 294 290 286 284 281 274 266 249 249 260 273 277 275 269 267 269 269 268 267 263 261 262 263 267 270 269 266 262 259 264 271 261 267 285 261 246 245 242 242 242 235 227 225 226 229 232 232 221 222 235 233 227 229 240 237 220 233 240 245 247 236 244 224 167 158 148 145
328 326 325 324 323 321 320 319 319 317 315 314 312 308 303 299 298 300 302 301 298 292 286 280 273 268 263 264 265 261 261 268 271 268 263 259 260 262 262 260 257 256 252 254 259 262 266 267 266 265 262 263 266 280 289 270 240 233 236 236 233 235 229 221 217 218 225 225 217 224 232 231 228 224 230 234 225 231 242 246 238 225 244 215 168 167 146 150
328 327 325 324 323 323 322 320 319 317 316 314 310 305 301 299 300 301 302 298 292 283 274 266 254 253 263 266 272 272 260 258 259 258 258 257 257 256 257 256 252 250 248 248 251 252 253 257 261 261 252 253 261 267 269 267 247 222 224 229 221 227 229 223 216 211 219 219 212 225 236 228 228 225 225 227 226 232 239 245 233 218 226 178 180 187 152 155
328 326 325 325 324 323 321 319 319 317 316 313 308 304 302 302 301 299 298 290 283 269 255 252 232 224 263 283 287 280 252 243 243 247 250 247 251 254 255 259 253 244 241 241 242 243 241 241 247 250 251 247 240 243 246 248 242 220 218 221 216 220 221 222 214 206 217 219 207 218 233 229 226 226 228 225 221 224 229 241 234 217 217 182 195 203 165 157
328 326 325 324 323 322 320 318 318 316 314 312 310 307 304 302 300 296 292 277 269 253 226 238 231 218 244 272 285 280 262 247 225 215 248 241 240 253 255 255 252 241 232 231 231 232 233 232 235 238 241 240 229 225 229 226 220 214 216 219 218 218 215 216 212 205 214 216 205 216 229 232 230 226 227 230 228 218 213 229 227 210 215 201 199 204 181 158
329 326 325 324 323 323 320 319 317 314 313 313 313 310 305 302 298 287 277 255 248 240 218 231 240 236 243 238 247 264 288 289 246 187 229 245 238 250 256 254 254 245 230 225 224 221 225 222 225 232 224 226 227 218 217 217 214 212 210 213 217 217 216 213 214 209 203 203 206 218 228 229 230 232 229 225 226 224 220 220 209 205 214 201 198 201 186 167
326 325 325 324 323 322 320 319 317 314 314 315 317 315 307 299 283 265 253 237 228 226 225 221 204 216 274 267 253 259 273 283 264 224 215 242 256 247 247 252 251 245 234 223 217 212 218 219 218 226 221 217 217 217 221 220 221 222 216 215 214 217 221 212 215 216 195 193 210 220 228 227 222 229 235 229 222 226 231 216 188 202 214 198 197 191 191 181
326 325 326 324 322 321 319 318 315 314 316 318 320 318 313 305 272 242 231 236 240 244 259 261 226 230 264 284 277 277 276 265 256 252 236 236 258 245 235 241 239 238 234 231 224 208 209 221 220 220 221 221 218 221 228 228 231 231 223 220 215 216 223 210 213 220 200 193 212 216 225 228 218 222 228 234 234 230 232 213 179 194 210 203 198 184 193 183
326 325 325 322 321 320 318 317 313 313 315 313 312 307 313 348 345 331 310 280 270 264 265 268 264 260 266 274 278 279 276 264 256 258 246 236 245 240 226 221 222 229 226 233 240 221 213 224 228 225 225 225 224 225 227 229 232 234 231 223 216 215 222 215 212 217 209 202 211 212 220 226 222 222 218 226 238 234 237 219 177 187 203 205 203 186 188 171
327 325 324 322 321 319 319 318 313 313 314 307 295 271 284 334 342 331 320 297 277 270 266 267 268 269 267 267 271 269 266 261 256 252 239 235 238 231 224 218 218 226 224 229 240 234 227 230 230 229 228 228 230 227 224 226 228 233 236 228 219 212 216 224 219 215 213 212 209 207 215 223 225 229 218 218 227 228 240 227 179 184 198 201 206 191 185 165
326 325 324 322 322 321 319 316 312 310 307 290 268 268 289 321 332 329 318 293 282 274 260 253 249 247 250 252 252 251 250 249 252 247 221 217 221 216 225 234 230 233 234 229 233 236 233 230 228 229 230 227 229 228 222 221 225 230 235 233 226 212 206 219 221 214 213 221 212 203 215 220 222 231 222 215 220 226 238 214 170 182 194 199 208 197 186 166
326 325 323 323 323 323 320 316 312 306 295 269 261 277 299 316 328 336 324 281 280 280 256 238 235 235 242 253 240 237 250 251 251 251 219 212 223 220 224 239 241 240 239 235 237 241 243 238 226 222 227 226 226 227 221 215 218 225 229 233 229 217 211 212 217 212 211 222 212 197 216 221 216 224 220 213 214 224 227 179 166 185 189 202 209 200 188 165
326 325 323 323 323 324 321 314 306 301 308 298 284 300 316 322 337 344 327 284 279 266 228 218 228 241 270 258 217 242 267 263 251 251 232 218 224 228 225 228 239 245 242 240 241 241 242 240 229 220 223 224 224 225 221 213 211 221 226 231 235 228 216 207 213 211 202 219 205 188 213 223 213 219 217 211 207 219 218 178 184 193 191 211 207 196 184 152
326 325 325 323 321 325 321 311 321 328 320 308 314 339 334 332 343 340 317 279 285 221 172 183 207 85 41 247 251 269 271 263 249 243 237 229 223 226 234 226 225 242 247 245 240 243 243 236 231 227 221 220 224 225 221 215 209 218 220 224 235 242 227 206 210 215 200 214 197 183 209 228 213 215 213 210 203 214 217 189 191 195 197 212 201 191 172 139
326 325 325 322 320 324 315 298 336 334 315 324 336 330 327 336 337 328 299 258 270 227 157 146 188 2 308 267 268 258 260 297 276 233 221 225 222 219 231 234 230 234 243 254 240 234 242 235 229 227 222 217 220 222 220 215 212 216 214 218 228 240 237 210 207 218 205 207 196 183 202 231 228 210 203 207 204 209 214 198 192 194 200 206 196 190 165 143
325 324 325 323 320 315 283 278 306 305 289 324 329 322 327 334 320 302 287 281 270 169 171 84 32 339 279 291 279 254 266 296 289 243 211 218 216 214 226 232 240 241 232 233 240 233 235 236 229 223 221 216 216 223 221 215 215 215 209 217 226 234 238 220 211 221 210 204 204 192 196 218 239 213 194 201 205 208 210 201 193 192 199 201 194 186 159 148
325 324 325 324 319 294 244 255 265 268 300 321 320 324 330 323 312 276 248 283 313 76 10 19 341 265 255 284 269 251 262 262 252 285 262 232 212 216 237 235 242 253 241 228 239 243 236 240 234 223 220 217 213 222 226 217 211 215 212 214 222 228 237 238 226 223 212 203 213 206 198 204 235 221 196 197 203 207 206 201 195 191 197 199 191 185 164 154
323 324 327 323 317 311 222 231 247 262 292 318 316 316 307 299 304 262 240 260 296 18 1 286 270 293 291 288 268 247 253 250 241 249 251 237 213 216 241 248 242 250 250 241 246 248 246 255 251 228 216 223 222 222 227 219 207 214 217 209 211 220 231 242 231 218 210 203 213 214 205 202 221 222 207 197 197 202 201 200 196 187 195 198 187 186 171 157
324 325 324 303 302 316 277 247 266 277 273 291 306 306 296 279 237 266 275 238 250 324 335 263 301 313 298 293 284 252 243 244 237 231 236 230 216 213 218 235 237 235 244 247 255 258 250 253 260 232 208 222 235 227 222 218 208 213 216 199 199 212 222 226 216 211 213 208 207 213 211 205 212 220 212 202 192 196 200 201 196 184 191 197 185 185 173 158
326 324 304 275 285 285 279 303 351 331 292 263 276 294 300 278 232 251 294 329 274 331 355 265 293 298 293 298 289 263 247 240 214 221 235 228 220 217 213 215 208 213 231 231 240 256 247 241 248 236 211 216 234 231 218 215 209 211 210 198 197 202 209 209 201 202 218 217 202 206 215 212 213 218 216 212 195 190 199 201 192 184 189 193 185 185 174 161
327 316 274 259 268 258 264 306 340 322 300 248 260 280 280 275 280 279 313 331 309 41 350 278 290 293 290 291 279 265 256 239 213 222 231 228 226 218 212 218 214 212 228 230 228 235 230 230 237 233 213 212 223 223 212 204 200 206 206 201 200 193 190 195 197 200 209 217 202 200 215 221 216 212 216 225 203 181 193 199 185 182 188 192 189 186 176 166
319 292 265 250 258 258 261 289 302 296 272 238 258 275 263 262 284 309 320 333 338 319 303 284 296 297 290 274 259 266 263 230 210 219 229 227 231 227 213 218 218 218 237 248 241 229 217 216 220 222 211 204 217 225 223 205 198 205 206 205 201 192 193 194 195 200 200 206 201 197 209 220 210 196 203 232 227 181 184 191 178 176 185 190 188 185 179 171
305 283 263 246 250 250 253 262 252 264 230 218 265 275 268 267 293 328 332 341 348 315 295 291 294 293 290 274 256 263 277 249 207 210 228 228 225 231 221 212 209 213 232 262 264 231 229 231 202 203 205 203 215 229 239 227 203 199 204 205 198 194 200 197 197 206 199 199 202 200 208 214 217 186 181 220 240 192 175 180 176 174 181 185 181 178 178 172
315 300 261 244 245 234 231 235 204 204 213 240 280 272 273 287 313 350 335 319 344 319 308 307 301 288 288 284 260 254 242 233 222 212 226 234 233 229 221 211 204 201 194 214 269 237 225 236 190 182 194 210 215 223 236 240 211 192 200 201 198 204 208 201 202 207 195 198 203 203 204 201 217 205 177 208 228 185 166 179 185 181 179 179 175 174 178 172
320 315 286 262 247 171 129 181 191 207 215 239 273 278 296 302 307 320 308 311 21 40 306 313 323 40 302 303 285 242 217 206 223 227 228 226 232 227 217 210 203 205 200 205 254 270 244 252 190 178 190 209 220 227 232 244 241 204 194 199 203 212 213 207 207 200 194 202 198 200 204 195 195 197 182 206 208 169 164 184 191 184 178 175 172 174 174 163
306 305 298 276 186 111 161 183 186 216 233 252 263 267 280 289 301 317 328 78 117 162 237 282 260 151 290 318 16 185 211 219 204 218 239 231 238 229 213 202 196 213 218 203 220 270 278 278 192 182 189 199 219 225 224 246 247 215 193 201 204 205 203 199 207 203 195 198 199 199 201 195 188 184 185 200 197 169 164 183 191 182 175 173 173 173 165 151
286 287 279 245 176 119 157 174 187 220 252 269 266 272 290 302 313 325 333 81 141 179 230 257 272 244 258 309 351 176 222 258 231 209 235 225 228 226 211 204 196 206 213 201 211 260 272 283 186 182 185 185 202 216 212 239 242 217 200 201 203 207 202 192 200 210 197 195 204 196 192 198 198 185 182 188 189 175 163 177 197 181 169 171 172 169 158 148
271 277 234 202 192 144 156 177 210 225 245 250 260 284 312 317 314 315 317 320 172 200 247 273 290 295 279 291 322 294 236 256 235 213 224 218 217 227 216 213 209 217 214 199 207 259 259 66 201 186 182 181 191 210 214 223 228 214 204 198 200 214 209 196 203 212 204 197 201 192 186 204 199 175 176 178 174 173 171 182 197 174 164 171 170 160 152 147
285 303 213 183 185 165 165 202 245 232 248 254 261 287 313 317 308 307 316 322 226 217 231 269 280 286 289 299 318 294 259 254 220 204 223 225 225 245 220 204 213 227 217 198 203 226 200 107 255 197 177 191 202 204 217 228 224 208 204 201 200 207 207 199 196 201 206 199 200 201 188 200 202 167 170 172 161 167 180 189 189 169 166 170 162 153 147 146
271 297 179 172 180 174 186 267 269 236 265 296 302 308 317 313 303 308 318 318 279 240 213 251 276 281 288 296 307 302 292 277 238 211 241 230 217 235 208 195 216 229 213 209 219 177 118 92 250 208 180 196 204 205 222 235 227 212 212 212 202 203 215 209 188 190 203 196 195 202 189 200 221 159 152 158 157 168 180 185 183 173 169 165 153 145 142 147
280 315 146 168 184 198 249 296 303 295 309 323 324 320 320 314 306 315 327 332 321 271 211 244 274 280 290 301 301 307 316 293 264 243 273 267 222 228 219 196 213 233 219 215 247 101 115 156 244 213 186 195 202 210 228 238 229 211 209 217 213 204 212 218 194 179 202 201 192 191 187 198 201 164 149 148 161 180 177 175 183 176 158 147 143 140 141 147
308 298 210 176 190 218 275 303 324 327 323 324 326 325 325 325 322 328 336 339 340 328 273 262 262 279 292 307 305 304 311 289 263 246 270 281 252 238 235 205 201 228 235 178 145 214 196 184 246 209 182 189 195 204 222 233 230 218 212 223 222 203 203 218 203 176 206 208 195 181 184 193 163 150 158 151 164 186 175 172 184 163 138 137 137 138 143 144
304 280 240 176 191 219 274 300 312 311 315 324 324 323 328 331 331 339 340 334 342 351 318 285 276 284 275 254 279 296 289 267 267 284 282 286 288 266 243 209 189 223 233 146 137 186 220 97 228 217 183 181 186 196 214 217 219 238 229 218 213 199 201 218 215 195 208 201 199 192 172 152 111 127 159 154 164 184 174 172 181 150 138 141 140 142 147 143
307 298 338 309 203 244 269 260 270 273 302 331 323 314 328 331 328 341 346 334 350 350 323 294 285 296 299 299 299 284 269 250 256 280 286 275 278 269 248 207 192 223 230 143 138 197 207 191 224 226 201 187 180 190 208 206 202 221 220 211 208 202 204 218 256 230 216 200 209 176 129 127 115 132 164 161 166 182 172 168 172 160 151 147 142 145 148 143
302 319 350 348 302 298 295 275 285 293 316 332 318 297 321 328 326 341 350 284 309 338 322 289 284 326 336 330 318 272 253 250 255 262 269 270 268 275 275 238 205 218 215 160 202 233 292 252 232 226 230 236 206 194 203 208 202 206 211 208 207 205 203 202 259 232 226 215 165 112 116 132 138 149 170 182 184 179 165 165 170 162 150 141 139 143 147 144
333 324 6 7 307 294 320 322 315 311 313 315 298 294 320 330 331 337 335 294 303 337 335 282 276 316 328 327 321 286 244 233 251 254 262 267 261 271 272 234 210 202 174 222 227 159 358 295 266 237 248 269 247 208 202 209 205 198 204 207 206 205 197 189 231 242 245 48 102 117 118 137 147 141 161 201 212 171 156 164 165 146 132 131 137 145 153 152
349 319 359 12 330 294 296 296 291 293 303 305 308 324 332 334 334 334 329 322 317 328 353 274 277 298 311 309 305 286 260 213 220 231 260 277 270 271 256 216 215 203 190 233 216 113 104 286 288 266 250 264 267 230 201 202 205 198 199 204 203 202 196 194 223 244 117 86 88 99 91 78 62 37 20 318 292 177 153 142 130 130 131 134 140 148 158 157
360 339 341 343 322 293 285 288 290 294 314 338 342 339 334 330 334 333 323 317 312 303 195 261 286 302 301 292 291 269 261 253 159 202 262 281 272 269 244 212 222 210 206 217 137 89 4 261 262 261 244 251 272 264 221 203 203 201 200 201 201 203 200 189 171 86 111 110 102 105 99 76 46 23 1 334 322 226 170 141 122 130 137 143 147 152 162 160
356 343 337 321 307 300 293 294 294 301 335 357 342 335 334 332 334 329 318 309 302 308 304 268 282 303 303 303 327 300 248 211 163 203 237 250 265 271 255 260 267 231 212 208 119 89 291 283 266 248 248 239 239 266 255 214 197 202 207 200 197 209 217 188 150 115 120 129 133 126 109 91 73 34 346 320 316 264 176 156 147 150 153 158 161 160 164 164
353 340 338 312 289 294 294 290 296 320 345 346 338 339 335 329 332 332 327 310 295 318 341 318 278 281 303 326 352 348 308 272 226 218 212 222 244 247 270 290 291 278 221 216 143 130 223 329 298 242 239 230 206 235 251 217 192 200 210 197 193 207 223 201 159 139 136 148 161 126 90 94 116 113 310 298 297 267 189 161 161 167 166 170 169 164 168 170
Height
834 833 831 830 829 828 827 826 825 823 822 821 820 818 817 816 815 814 813 811 810 808 807 805 803 802 800 798 795 793 790 787 784 781 779 777 777 778 778 778 777 776 775 775 775 774 772 770 768 768 768 766 765 764 762 758 756 758 764 771 770 766 761 756 753 750 745 740 735 730 727 730 731 724 719 721 725 730 735 729 725 728 729 733 741 747 752 755
834 833 831 830 829 828 827 825 824 823 822 820 819 818 817 816 815 813 812 811 810 808 807 805 804 802 800 797 794 792 790 788 784 779 776 776 777 778 779 779 778 776 775 775 774 772 770 767 765 764 765 765 762 760 761 757 755 759 761 765 762 756 751 745 745 742 740 739 733 727 725 726 729 725 719 728 738 736 740 737 731 734 733 734 739 745 751 754
833 832 831 830 829 827 826 825 824 822 821 820 819 817 816 815 814 813 812 811 809 808 807 805 804 802 799 797 794 792 790 787 780 776 775 776 777 778 779 778 778 776 776 776 774 772 770 767 764 762 762 763 759 757 758 755 754 754 756 759 751 746 746 741 739 738 735 735 734 729 723 723 723 720 719 729 741 740 739 738 740 741 736 734 736 739 747 753
833 832 831 829 828 827 826 824 823 822 820 819 818 817 816 814 813 812 811 810 809 808 806 805 803 802 800 797 793 792 790 785 777 775 776 776 777 778 778 778 778 777 776 775 774 772 770 768 765 762 761 760 757 754 755 752 751 750 749 751 742 740 745 738 735 734 731 732 733 728 726 726 720 716 720 726 739 744 737 731 734 736 731 729 732 736 743 751
833 832 830 829 828 826 825 824 822 821 820 818 817 816 815 814 813 812 811 810 808 807 806 805 803 802 800 797 793 792 790 783 775 775 776 776 777 777 778 778 778 777 776 775 773 771 769 767 765 764 762 760 756 754 751 745 745 748 744 741 737 738 741 734 732 732 730 731 729 727 731 728 720 718 720 723 734 739 734 726 722 724 723 721 727 735 741 748
833 831 830 829 827 826 824 823 822 820 819 818 817 815 814 813 812 811 810 809 808 807 806 804 803 802 799 797 793 792 792 781 772 774 775 775 777 776 777 777 777 776 775 774 771 769 767 765 766 765 763 760 756 751 748 742 741 747 742 735 733 734 736 732 729 730 729 732 730 728 728 725 725 726 719 718 724 724 725 721 716 718 719 720 729 738 742 746
832 831 830 828 827 826 824 823 821 820 819 818 816 815 814 812 811 810 809 808 807 806 805 804 803 802 799 797 793 789 788 778 771 774 775 775 776 775 776 776 776 776 775 773 770 767 765 764 764 763 762 760 755 750 746 741 738 743 741 734 731 730 732 731 728 727 726 729 727 726 727 725 729 729 719 716 716 714 717 718 715 716 718 724 736 742 744 746
832 830 829 828 826 825 823 822 821 820 819 817 816 814 813 812 811 810 808 808 807 806 805 804 803 802 801 799 794 789 784 776 772 775 775 775 775 775 776 775 775 775 773 772 769 766 764 763 762 761 762 758 753 749 745 743 739 737 737 733 730 728 728 728 728 727 725 723 722 724 729 728 726 726 723 719 714 709 709 713 717 718 718 723 733 740 743 746
831 830 828 827 826 824 823 821 820 819 817 816 815 814 812 811 810 809 808 807 807 806 805 804 803 802 802 800 797 792 781 773 773 775 775 775 775 776 776 775 775 773 772 771 769 768 766 764 761 758 760 756 751 748 744 745 741 732 732 731 729 728 726 726 727 727 726 722 720 724 727 723 717 721 727 720 713 710 706 709 715 720 721 721 727 733 737 743
831 829 828 826 825 823 822 820 819 818 816 815 813 812 811 810 809 808 807 806 805 805 804 804 803 803 803 799 797 792 778 772 775 775 775 775 775 776 775 775 774 772 771 770 768 767 765 764 761 757 757 754 751 748 743 742 737 729 728 727 726 728 725 724 725 723 723 722 722 726 726 718 712 722 731 718 705 707 710 711 712 720 726 722 724 730 733 739
830 829 827 826 824 823 821 819 818 816 815 813 812 811 809 808 807 806 805 805 804 804 803 802 802 802 801 798 797 788 774 773 775 774 775 775 775 775 774 774 773 772 771 769 768 767 765 763 760 760 759 754 751 749 743 737 732 729 728 726 725 727 725 723 723 721 721 722 720 723 726 722 720 724 724 711 701 706 716 718 714 718 724 721 724 732 735 737
829 828 827 825 823 822 820 818 816 815 813 812 810 808 807 806 805 804 803 802 802 802 801 801 801 801 799 796 791 781 774 774 774 774 775 773 773 773 773 773 772 772 771 769 768 766 766 764 762 764 760 753 752 751 744 735 732 730 729 731 728 724 724 722 722 720 721 720 713 721 734 730 724 720 712 705 704 709 716 720 716 715 719 719 721 730 736 738
828 827 825 824 822 820 819 817 815 814 812 810 808 806 805 804 802 801 801 800 800 800 799 799 799 799 798 791 780 776 774 773 773 774 773 773 772 771 771 772 771 771 771 770 768 767 766 764 763 762 758 756 755 749 741 734 734 733 729 731 731 728 724 719 719 719 719 716 710 725 742 731 716 712 710 706 708 714 719 718 716 716 718 718 720 728 735 737
827 826 824 822 821 819 817 816 814 812 810 808 806 804 802 800 799 798 798 797 797 797 797 798 798 798 796 784 773 773 773 772 772 771 771 771 770 770 770 770 770 769 769 769 768 767 767 765 763 761 759 758 754 748 745 738 732 732 733 731 729 732 726 713 713 717 720 715 708 722 733 722 712 711 712 709 709 717 721 717 716 718 719 719 720 726 733 735
827 825 823 821 819 818 816 814 813 810 809 806 804 802 799 797 796 795 795 794 794 795 795 796 796 795 791 779 770 769 769 769 769 768 769 770 769 768 767 768 768 767 767 767 767 767 767 766 765 763 760 757 756 756 755 748 734 728 737 736 726 730 726 712 706 710 718 714 707 718 723 718 716 713 710 709 711 716 718 716 715 718 719 720 721 725 731 734
826 824 822 820 818 817 815 813 811 809 807 804 801 798 795 793 792 792 792 792 792 793 794 794 792 793 789 775 767 766 766 765 764 765 767 767 768 767 766 766 765 765 765 765 765 765 765 765 764 762 760 758 758 759 758 754 743 729 731 734 726 726 725 716 706 704 712 712 708 715 719 720 718 711 708 706 709 713 714 716 715 716 718 719 721 723 727 732
825 823 821 819 817 815 814 812 810 808 805 802 798 794 790 789 789 789 789 789 790 789 791 790 785 788 782 770 767 764 760 759 759 762 763 764 766 766 765 765 762 762 762 762 763 763 763 763 762 761 760 758 755 756 760 757 746 731 724 726 721 718 720 719 711 703 704 707 709 714 718 720 715 709 707 704 704 708 711 715 714 714 717 719 720 722 725 730
824 822 820 818 816 814 812 810 808 806 804 800 796 791 786 784 785 786 786 787 787 787 789 785 784 786 772 761 765 761 756 757 757 760 762 763 765 765 765 763 761 760 759 760 760 760 762 761 761 762 759 758 753 751 753 745 734 727 723 724 721 715 714 716 712 701 696 703 712 718 718 716 713 709 705 701 701 705 707 708 710 712 715 717 718 720 723 728
823 820 819 817 815 813 811 809 807 805 803 799 795 789 780 778 781 783 784 785 784 783 781 775 778 779 763 756 760 757 756 756 757 756 757 762 764 763 764 763 761 760 760 761 758 757 759 760 761 762 757 753 748 743 739 732 726 722 720 721 720 717 711 707 707 696 691 706 716 717 716 712 713 711 705 699 697 701 703 701 705 710 713 714 717 719 721 726
821 819 817 815 813 812 809 808 806 803 802 799 796 789 778 774 777 778 780 781 777 773 769 763 764 764 758 756 756 754 754 754 754 752 752 760 763 761 762 761 761 761 760 759 755 752 755 760 759 755 751 744 741 738 734 730 725 719 717 715 713 714 708 701 703 693 686 704 712 710 712 709 708 709 704 701 697 697 699 697 702 709 712 713 715 717 719 723
820 818 816 814 812 810 808 806 804 802 801 799 799 794 783 777 778 778 777 776 771 767 763 758 758 756 753 754 752 753 753 750 751 749 751 757 758 758 759 759 761 761 758 756 753 748 750 758 754 746 743 740 738 736 735 732 726 720 716 710 707 709 705 696 697 691 683 696 705 704 709 707 703 702 700 700 700 698 695 695 700 705 709 711 712 715 717 719
819 817 815 813 810 809 806 804 802 800 799 798 798 795 786 781 782 781 779 775 767 764 762 759 758 755 751 751 750 752 752 750 750 748 751 755 754 756 755 753 757 755 751 752 754 752 750 750 745 741 739 738 737 732 732 732 727 723 715 708 705 703 704 699 691 686 682 689 699 700 706 707 701 697 695 696 698 695 690 689 693 700 706 709 710 712 715 719
818 815 813 811 809 807 805 802 800 798 797 796 796 793 786 783 784 783 783 779 768 760 757 756 756 753 749 748 747 748 749 748 748 745 748 753 751 753 753 749 749 748 746 748 750 751 749 741 736 737 738 737 736 730 729 730 727 723 716 711 704 695 701 705 694 685 682 684 690 697 704 705 701 697 691 690 691 690 687 686 688 694 701 705 707 708 711 717
816 814 812 810 808 806 803 800 797 795 795 794 793 791 787 786 785 785 785 782 770 756 749 747 745 744 743 744 745 746 745 743 743 741 743 747 747 747 750 749 748 745 742 741 743 744 741 733 729 734 736 734 735 730 724 727 727 720 713 710 702 689 691 696 691 684 683 683 681 693 710 707 699 698 692 686 687 688 687 687 689 692 697 701 703 705 707 713
814 813 810 808 807 804 802 800 796 794 794 792 790 788 788 787 787 787 787 782 768 747 740 741 739 739 741 742 744 744 743 741 739 739 739 740 742 744 745 746 747 745 740 737 739 740 736 729 727 731 733 731 731 727 719 719 725 720 708 703 696 688 684 686 686 683 690 695 680 689 721 717 696 694 692 686 687 688 686 686 690 693 696 700 702 703 705 712
813 811 808 807 805 803 802 798 795 795 793 790 789 788 789 789 788 788 788 786 769 742 737 742 740 742 744 742 741 742 746 743 736 736 738 737 738 740 742 742 742 743 739 734 736 738 734 728 726 728 729 729 728 724 714 710 718 718 703 697 695 688 679 679 683 682 692 698 679 682 717 721 699 690 687 683 686 688 684 683 688 692 696 698 699 701 705 713
811 809 807 805 803 803 802 797 795 795 791 790 789 789 790 789 789 790 787 782 762 738 737 742 741 744 745 741 739 745 750 742 734 733 733 736 736 737 742 741 739 738 734 736 741 740 734 730 727 725 725 726 724 719 709 703 710 710 696 692 694 688 678 672 676 681 682 684 680 680 701 717 705 686 678 678 683 686 682 681 685 689 693 695 695 697 702 711
809 807 805 802 800 801 800 798 797 795 792 790 790 790 790 790 790 789 789 778 751 735 738 742 745 747 745 742 741 744 744 739 741 738 731 734 736 736 740 739 738 734 729 739 747 737 732 732 727 723 723 721 718 713 703 698 702 699 691 690 688 684 677 667 672 677 671 678 691 685 691 715 708 678 669 675 680 685 682 680 683 686 690 692 692 695 701 709
807 805 802 800 798 797 798 798 797 794 792 791 791 792 790 791 791 788 791 776 745 735 742 745 749 748 744 744 743 742 740 739 744 742 736 736 734 734 738 736 737 734 728 733 738 733 732 730 721 718 721 717 711 707 698 694 695 691 686 686 683 680 676 673 676 674 670 686 699 686 683 709 709 679 668 674 678 680 679 677 679 682 686 688 689 692 698 705
805 803 801 799 797 796 796 796 795 793 792 792 792 792 790 792 792 786 784 769 744 743 749 747 748 748 745 744 741 739 740 740 740 742 742 736 732 734 734 733 735 735 731 729 731 731 729 726 718 711 714 713 706 701 694 689 688 686 683 682 684 682 679 682 678 668 680 697 694 679 673 694 707 684 665 668 670 671 674 675 675 678 683 685 686 689 693 701
803 800 799 798 796 796 795 794 793 792 792 793 792 792 791 792 791 784 769 752 745 751 752 747 749 749 746 744 741 740 740 739 740 747 747 735 731 734 734 735 736 736 739 737 736 735 729 729 723 708 706 710 706 699 691 685 683 683 681 680 688 692 688 687 677 671 691 698 683 672 667 681 701 684 659 657 657 659 666 670 671 676 681 682 684 687 690 697
800 798 797 796 795 795 794 792 792 792 792 793 792 793 793 791 786 775 757 745 749 756 754 755 756 751 746 744 743 741 737 735 737 744 743 735 732 732 732 735 736 741 745 741 741 741 732 727 721 710 704 706 710 707 696 686 682 681 680 682 695 703 698 696 690 687 694 686 669 668 669 677 684 671 654 651 648 651 657 660 664 671 677 680 682 685 688 693
797 796 795 794 794 793 792 791 792 793 792 792 793 794 795 791 775 757 748 748 754 756 756 758 756 749 746 746 745 738 732 732 734 736 736 733 730 727 728 729 728 735 739 738 743 742 733 723 717 714 708 702 709 712 703 690 682 681 680 683 692 698 705 711 701 692 691 679 662 661 671 678 673 660 651 645 641 643 649 652 657 664 672 677 678 681 685 690
795 794 793 793 793 792 791 792 791 792 792 793 794 794 795 789 766 749 747 749 753 755 757 758 753 747 744 743 740 733 730 731 730 731 733 731 729 726 726 726 724 726 732 740 742 733 730 726 716 715 710 703 704 703 695 687 682 678 672 675 683 685 697 704 693 688 690 680 664 663 673 678 669 656 646 640 635 635 642 647 651 659 666 671 674 678 683 687
794 793 792 791 791 790 790 791 791 792 793 793 795 795 792 779 760 753 753 752 758 762 761 757 750 747 742 734 731 729 729 732 728 730 731 727 728 728 724 722 721 724 734 745 740 726 726 720 705 705 705 701 703 698 690 689 687 677 668 673 679 672 674 681 679 676 678 681 675 669 669 662 651 642 635 637 635 631 638 645 649 659 664 667 673 677 681 686
793 791 791 790 789 788 789 790 790 792 793 794 796 792 780 765 755 759 759 757 766 770 766 755 744 744 740 727 727 727 726 731 729 730 731 727 726 724 717 715 715 720 733 745 742 730 726 714 695 699 704 699 700 696 690 692 688 677 673 678 671 658 658 673 679 669 671 689 684 668 666 658 649 644 634 635 638 634 640 647 651 658 661 666 673 676 681 684
794 791 789 787 787 787 788 789 790 791 792 794 795 783 768 759 755 759 760 759 767 772 771 760 745 743 738 724 727 729 725 727 728 729 730 727 722 716 711 711 712 716 723 732 735 725 721 714 695 695 704 697 693 693 689 686 681 679 682 677 665 658 657 667 683 683 685 698 684 666 669 665 662 662 645 637 642 641 645 649 650 655 659 666 672 675 679 683
795 792 789 786 785 785 786 788 789 790 792 793 793 780 767 761 754 752 755 759 766 770 771 764 749 743 740 730 728 729 726 725 724 725 724 721 717 708 705 708 711 714 715 723 733 726 723 722 700 688 698 697 692 696 695 685 673 671 673 665 663 674 674 671 684 692 693 698 686 669 664 659 660 661 650 644 645 643 645 647 648 652 658 665 670 674 678 682
795 794 789 784 783 784 785 788 787 790 794 792 787 775 762 756 750 747 752 758 766 770 767 759 748 743 743 738 733 729 726 723 721 722 722 720 716 707 702 705 707 710 712 719 728 722 719 724 707 686 689 697 698 699 699 691 675 663 660 656 656 665 668 667 673 675 680 691 687 674 668 662 652 645 643 644 641 640 646 649 649 650 655 663 668 672 677 682
792 791 785 780 782 782 783 786 786 791 794 787 778 768 759 755 751 748 748 753 762 766 761 755 750 745 743 739 735 729 723 720 718 719 719 715 712 707 702 702 704 706 706 709 716 717 718 726 717 691 685 697 702 697 692 688 679 668 663 662 659 656 653 657 661 657 662 680 684 680 681 667 638 627 634 638 637 639 645 650 650 649 653 660 664 669 675 682
789 787 779 777 780 780 781 784 785 787 786 777 770 765 760 757 753 747 746 749 755 757 757 758 754 747 741 738 734 726 719 716 712 712 715 710 709 707 699 698 701 701 701 703 709 713 716 727 723 703 697 702 697 686 680 677 671 666 663 659 656 654 652 662 670 656 650 664 670 674 682 663 628 619 628 631 635 640 642 646 649 648 652 658 661 666 673 680
788 783 776 775 779 778 778 779 776 776 773 765 761 759 757 756 754 749 746 746 749 750 753 758 753 746 741 735 731 725 721 717 709 709 711 704 704 704 694 694 697 694 696 701 700 700 710 727 725 705 698 699 689 679 677 674 664 659 658 651 646 648 651 662 673 662 651 654 653 658 674 660 627 618 625 628 633 637 639 643 646 647 650 654 659 665 672 679
782 778 775 776 777 776 777 774 766 764 763 757 754 754 754 755 755 750 744 744 747 749 752 754 750 745 739 733 731 728 726 721 711 711 712 703 697 695 689 690 693 690 693 697 698 701 711 723 721 704 694 691 685 680 677 671 663 660 657 648 643 647 646 646 650 651 654 656 649 660 677 660 629 621 625 628 632 635 637 640 644 647 650 653 659 665 672 679
784 777 774 775 776 775 776 774 767 764 761 756 755 754 751 751 752 749 746 745 748 752 754 753 749 745 740 739 738 732 729 728 717 709 711 706 696 690 685 685 688 689 689 692 700 709 714 718 717 712 709 706 699 695 689 678 669 664 658 651 645 642 641 642 641 646 658 654 644 661 676 655 629 624 626 629 634 637 638 639 642 645 651 657 661 666 672 679
787 776 769 771 775 774 772 770 768 767 763 760 760 756 751 749 747 745 745 744 746 750 753 751 746 743 740 740 740 734 729 730 725 713 709 708 700 692 685 681 685 688 685 687 697 706 714 722 720 714 716 718 715 709 698 684 675 669 659 651 646 640 642 647 649 657 665 652 639 651 661 647 632 628 629 631 637 640 640 641 642 644 651 657 662 668 674 679
787 777 770 770 769 768 767 764 765 766 762 762 763 757 752 750 744 739 741 744 744 746 748 746 741 739 738 734 735 738 734 731 728 720 714 712 705 693 683 680 684 685 683 685 691 697 707 715 713 704 700 700 702 698 686 675 675 675 663 652 647 643 641 645 654 662 659 650 647 645 644 647 645 638 637 636 638 642 642 643 645 646 651 656 662 668 673 679
786 780 778 779 774 767 763 759 759 761 760 761 764 759 753 749 742 737 739 742 742 743 744 742 737 738 739 733 732 737 739 736 728 720 717 714 705 695 685 681 682 683 684 686 686 694 707 708 700 696 692 689 689 686 677 671 670 669 663 656 650 643 641 648 659 655 644 653 665 652 642 653 654 644 643 641 639 641 642 644 646 648 652 657 662 668 674 680
788 784 783 789 786 774 767 762 759 760 760 760 760 756 750 746 743 742 740 737 737 740 745 743 738 736 736 733 734 736 737 738 730 720 718 713 706 701 692 684 682 682 685 687 685 698 715 711 697 696 697 695 690 681 673 669 664 659 658 657 650 645 646 653 656 646 642 658 667 653 649 657 652 647 648 643 638 639 640 641 644 646 652 659 663 670 675 680
796 792 788 791 790 781 775 769 763 760 759 755 753 750 747 745 744 743 738 735 734 737 746 747 740 736 736 734 737 736 732 731 727 720 719 715 709 705 697 689 684 681 684 688 689 699 713 711 703 701 698 695 690 679 669 664 661 658 657 655 650 647 648 651 651 646 648 657 657 652 659 662 655 653 654 646 640 638 638 641 644 648 655 660 665 671 674 677
805 803 799 798 795 786 775 767 761 756 751 748 750 748 745 744 746 743 737 735 735 735 741 744 736 731 733 732 732 731 727 725 722 719 720 717 712 708 701 692 686 683 684 687 693 704 712 708 701 699 697 694 690 683 673 665 661 661 659 654 651 650 648 650 656 654 654 660 659 659 667 668 660 656 654 650 646 641 641 646 650 654 657 661 667 672 674 677
810 810 808 808 800 786 774 766 759 753 747 748 752 749 744 744 745 743 735 730 730 729 732 737 736 731 727 722 722 722 718 716 717 717 716 715 711 706 701 693 687 688 687 687 697 711 715 708 699 697 700 695 687 685 681 667 661 665 665 658 656 656 653 652 659 660 658 662 664 667 673 672 664 659 657 655 651 647 646 650 654 657 659 662 667 671 674 677
813 811 809 810 802 786 775 765 754 751 750 750 751 748 746 745 740 739 737 729 722 723 726 730 735 736 728 720 718 714 709 707 710 709 707 707 705 700 698 694 690 690 690 690 699 710 715 715 710 703 701 692 683 683 679 671 674 678 670 658 657 659 655 652 656 658 656 658 665 674 676 668 662 664 665 661 658 655 651 651 655 658 658 661 664 668 672 674